This demonstration page uses our WeatherBlox Daily Observations layout. Learn more.

Left ArrowRight Arrow

Hourly Observations for December 22, 2020

Temp ( °F °C ) Dew Point ( °F °C ) Humidity (%) Winds ( mph kmh ) Pressure ( in mb ) Visibility ( mi km ) Precip ( " mm )
12:51 am 00:51 Clear 41 5 18 -7.8 39 39 SSE 10 17 30.05 1018 10 16.0934 0 0
1:51 am 01:51 Clear 41 5 16 -8.9 36 36 SSE 9 15 30.05 1018 10 16.0934 0 0
2:51 am 02:51 Clear 35 1.7 15 -9.4 44 44 SSE 13 20 30.05 1018 10 16.0934 0 0
3:51 am 03:51 Clear 36 2.2 16 -8.9 44 44 SSE 12 19 30.05 1018 10 16.0934 0 0
4:51 am 04:51 Clear 33 0.6 15 -9.4 47 47 SE 6 9 30.06 1018 10 16.0934 0 0
5:51 am 05:51 Clear 31 -0.6 16 -8.9 54 54 SE 5 7 30.08 1019 10 16.0934 0 0
6:51 am 06:51 Clear 34 1.1 14 -10 44 44 SSE 10 17 30.1 1019 10 16.0934 0 0
7:51 am 07:51 Sunny 33 0.6 15 -9.4 47 47 ESE 3 6 30.11 1020 10 16.0934 0 0
8:51 am 08:51 Sunny 39 3.9 17 -8.3 41 41 ESE 3 6 30.11 1020 10 16.0934 0 0
9:51 am 09:51 Sunny 44 6.7 18 -7.8 35 35 SE 7 11 30.11 1020 10 16.0934 0 0
10:51 am 10:51 Sunny 50 10 19 -7.2 29 29 Calm 30.11 1020 10 16.0934 0 0
11:51 am 11:51 Sunny 55 12.8 19 -7.2 24 24 VRB 3 6 30.06 1018 10 16.0934 0 0
12:51 pm 12:51 Sunny 56 13.3 18 -7.8 22 22 Calm 30.01 1016 10 16.0934 0 0
1:51 pm 13:51 Sunny 60 15.6 17 -8.3 19 19 Calm 29.97 1015 10 16.0934 0 0
2:51 pm 14:51 Sunny 60 15.6 17 -8.3 19 19 Calm 29.97 1015 10 16.0934 0 0
3:51 pm 15:51 Sunny 63 17.2 17 -8.3 17 17 W 5 7 29.95 1014 10 16.0934 0 0
4:51 pm 16:51 Sunny 60 15.6 19 -7.2 20 20 W 6 9 29.95 1014 10 16.0934 0 0
5:51 pm 17:51 Clear 53 11.7 19 -7.2 26 26 W 9 15 29.98 1015 10 16.0934 0 0
6:51 pm 18:51 Clear 47 8.3 20 -6.7 34 34 NNE 5 7 29.99 1016 10 16.0934 0 0
7:51 pm 19:51 Clear 42 5.6 20 -6.7 41 41 ESE 3 6 30.01 1016 10 16.0934 0 0
8:51 pm 20:51 Clear 43 6.1 19 -7.2 38 38 ENE 6 9 30.01 1016 10 16.0934 0 0
9:51 pm 21:51 Clear 39 3.9 20 -6.7 46 46 SE 3 6 30.02 1017 10 16.0934 0 0
10:51 pm 22:51 Clear 39 3.9 20 -6.7 46 46 ENE 6 9 30.01 1016 10 16.0934 0 0
11:51 pm 23:51 Clear 38 3.3 19 -7.2 46 46 E 5 7 30.01 1016 10 16.0934 0 0

Powered by AerisWeather